sat.trackr.live / text

‹ back to catalog

STARLINK-37615

NORAD 69030 · 2026-101F

PAYLOAD ACTIVE UNKNOWN

§ Identity

Operator
Country
US
Launch date
2026-05-06
Launch site
AFWTR
Launch vehicle
Mass (kg)
RCS (m²)

Purposes: comms

External: N2YO · Heavens-Above · Gunter

§ Orbital elements

Epoch: 2026-09-19T21:05:58.909056Z

Period
93.91 min
Inclination
97.2864°
Eccentricity
0.0002693
Mean motion
15.33456680 rev/d
Perigee alt
463.7 km
Apogee alt
467.4 km
Semi-major
6,843.6 km
B*
6.4435e-4
RAAN
116.3727°
Arg perigee
87.8736°
Mean anomaly
272.2815°
Rev number
2,108

§ Raw data

STARLINK-376151 69030U 26101F   26262.87915404  .00020793  00000+0  64435-3 0  99992 69030  97.2864 116.3727 0002693  87.8736 272.2815 15.33456680 21081

JSON: /api/v1/satellites/69030 · /tle

For live sub-satellite position, see the globe view (requires WebGL).

§ Visibility from observer

Set your observer location to see the next 7 days of passes ≥ 10°. The values pass through the URL so the page stays shareable.

No JS? Fill the form by hand. The geolocation button needs JavaScript.